Location: Ahausen
(50.4985°N, 8.2722°E)
Time: 19:26:58
(UTC+00:00)

Cosmos 1626 - Pass Details

Date: 18 September 2020
Orbit: 490 x 495 km, 82.5° (Epoch: 22 October)

Event Time Altitude Azimuth Distance (km) Brightness Sun altitude
Rises 20:12:36 0° 347° (NNW) 2,591 6.5 -24.5°
Reaches altitude 10° 20:14:43 10° 345° (NNW) 1,702 5.5 -24.7°
Enters shadow 20:17:34 48° 325° (NW) 654 3.0 -25.1°
